[[{"header":{"parameterUnit":"m.s-1","parameterCategory":1,"la1":30.2991,"la2":30.254,"lo1":-89.0895,"lo2":-89.0444,"dy":0.0017,"dx":0.0017,"nx":28,"ny":28,"refTime":"2024-06-26T21:00:00:Z","depth":0,"parameterNumber":2,"parameterNumberName":"U-component_of_WINDS"},"data":[0,0,0,0,0,0,0,0,0,0,0,0,0,0,0,0,0,0,0,0,0,0,0,0,0,0,0,0,0,0,0,0,0,0,0,0,0,0,0,0,0,0,0,0,0,0,0,0,0,0,0,0,0,0,0,0,0,0,2.4468,2.4469,0,2.4623,2.4625,2.4626,2.4691,2.469,2.469,2.469,2.4849,2.4853,2.4857,0,0,0,0,0,0,0,0,0,0,0,0,0,2.4228,2.4232,2.4468,2.447,2.4471,2.4623,2.4625,2.4627,2.4691,2.469,2.469,2.469,2.4847,2.4852,2.4858,0,0,0,0,0,0,0,0,0,0,0,0,0,2.4352,2.4233,2.4467,2.4522,2.4528,2.4622,2.4625,2.4627,2.4691,2.469,2.469,2.4689,2.4845,2.4852,2.4859,2.491,0,0,2.4879,2.4882,0,0,0,0,0,0,0,0,2.4345,2.4361,2.4512,2.4518,2.4525,2.4637,2.4598,2.4722,2.4691,2.4629,2.469,2.4689,2.4779,2.4791,2.4821,2.4918,2.4924,2.488,2.4884,2.4887,2.4889,0,0,0,0,0,0,0,2.4336,2.4355,2.4529,2.4514,2.4522,2.4538,2.4556,2.4622,2.4705,2.4634,2.4639,2.4657,2.4782,2.4814,2.4825,2.4927,2.488,2.4886,2.489,2.4893,2.5075,2.5076,0,0,0,0,0,0,2.4319,2.4347,2.4524,2.4534,2.4432,2.4543,2.4562,2.4602,2.4704,2.4719,2.4657,2.4659,2.4803,2.4817,2.4831,2.4899,2.4887,2.4893,2.4897,2.5074,2.5075,2.5076,0,0,0,0,0,0,2.4313,2.4334,2.4518,2.4442,2.4466,2.4548,2.4591,2.4605,2.4637,2.4721,2.4736,2.4675,2.4803,2.4821,2.489,2.4905,2.4896,2.4903,2.5073,2.5075,2.5076,2.5034,0,0,0,0,0,0,2.4306,2.4331,2.4352,2.4442,2.447,2.4574,2.4592,2.4608,2.4649,2.4653,2.4742,2.4756,2.4804,2.488,2.4897,2.4914,2.4908,2.5072,2.5074,2.5075,2.5035,2.5034,2.5033,0,0,0,0,0,2.4297,2.4333,2.4352,2.4373,2.4497,2.4575,2.4591,2.4646,2.4649,2.4671,2.4725,2.4753,2.4901,2.4886,2.4906,2.4926,2.5072,2.5073,2.5075,2.5035,2.5034,2.5033,0,0,0,0,0,0,2.4242,2.4346,2.4368,2.4435,2.4495,2.4585,2.4614,2.4643,2.4704,2.4705,2.4771,2.479,2.4854,2.4897,2.4879,2.4982,2.4989,2.4994,2.4951,2.4951,2.495,2.4938,2.4913,0,0,0,0,0,2.4238,2.4293,2.438,2.4431,2.446,2.4531,2.4567,2.4604,2.467,2.4696,2.4755,2.4818,2.4879,2.4917,2.4978,2.5041,2.5062,2.5065,2.5064,2.5063,2.5067,2.5105,2.5107,2.5082,2.5082,2.5082,0,0,2.423,2.4293,2.4323,2.4421,2.4473,2.4528,2.4553,2.461,2.4651,2.4705,2.4774,2.4819,2.4894,2.496,2.4993,2.4998,2.5079,2.5065,2.5064,2.5069,2.5107,2.5109,2.5111,2.5083,2.5083,2.5082,0,0,2.4243,2.4296,2.4344,2.4395,2.4473,2.4521,2.4532,2.4618,2.4651,2.4721,2.4763,2.4813,2.4916,2.4968,2.5008,2.5041,2.507,2.5059,2.5055,2.5091,2.5093,2.5095,2.5108,2.5111,2.5063,2.5063,2.5063,0,2.4222,2.4307,2.4365,2.442,2.4462,2.4514,2.4563,2.461,2.4704,2.4732,2.4737,2.4868,2.4921,2.5001,2.501,2.504,2.5055,2.5049,2.5088,2.5091,2.5094,2.5106,2.5111,2.5061,2.5062,2.5062,2.5062,0,2.4278,2.4336,2.4366,2.4455,2.4501,2.4553,2.4619,2.4659,2.4692,2.4739,2.481,2.4877,2.4952,2.4974,2.5006,2.5058,2.506,2.5076,2.5084,2.5093,2.5106,2.5112,2.5059,2.5059,2.506,2.506,0,0,2.426,2.4382,2.4392,2.4433,2.4524,2.457,2.4625,2.4699,2.4731,2.4794,2.4842,2.4929,2.4944,2.4989,2.5029,2.506,2.5083,2.5073,2.5076,2.5072,2.5145,2.5133,2.5137,2.5103,2.5104,2.5105,2.5139,0,2.4285,2.4385,2.444,2.4517,2.4572,2.4622,2.467,2.4731,2.4777,2.483,2.4881,2.4941,2.4957,2.4985,2.5019,2.5073,2.5099,2.5072,2.5148,2.515,2.5128,2.5144,2.5131,2.516,2.5145,2.5146,2.5146,0,2.4328,2.4391,2.4473,2.4559,2.4584,2.4626,2.4698,2.4749,2.4819,2.485,2.4901,2.494,2.5,2.5004,2.5088,2.5068,2.5103,2.5135,2.5137,2.5146,2.5148,2.5154,2.517,2.5174,2.5155,2.5154,2.5153,0,2.4307,2.4412,2.4476,2.451,2.461,2.4639,2.4682,2.4752,2.4793,2.4857,2.4884,2.4954,2.4992,2.5045,2.5102,2.5099,2.5181,2.5189,2.5208,2.5207,2.5223,2.5221,2.5245,2.5245,2.5245,2.5245,2.5245,0,2.4329,2.4378,2.4468,2.4506,2.4563,2.4626,2.468,2.4727,2.4789,2.4838,2.4886,2.4931,2.5004,2.5058,2.5104,2.5167,2.5184,2.5211,2.5222,2.5206,2.5203,2.523,2.5229,2.5246,2.5246,2.5246,2.5246,0,2.4315,2.4377,2.4449,2.4539,2.4563,2.46,2.4677,2.4717,2.4766,2.4828,2.4846,2.4922,2.4989,2.5051,2.514,2.5171,2.5234,2.5249,2.5211,2.5217,2.5233,2.523,2.5275,2.5284,2.5277,2.5277,2.5277,0,2.4325,2.4364,2.4458,2.4495,2.4537,2.4595,2.4638,2.4701,2.4744,2.4827,2.4857,2.4927,2.4987,2.5091,2.5155,2.5223,2.524,2.5251,2.5251,2.5234,2.5241,2.5238,2.5242,2.525,2.525,2.5249,2.5249,0,2.4337,2.4366,2.4425,2.4496,2.4545,2.4604,2.4664,2.4691,2.4766,2.4812,2.4881,2.4927,2.5018,2.5087,2.5163,2.5208,2.5241,2.5249,2.5257,2.5242,2.5218,2.5231,2.5208,2.5248,2.5248,2.5248,2.5248,2.5248,2.4336,2.4373,2.4445,2.451,2.4562,2.4617,2.466,2.4714,2.4772,2.4852,2.4886,2.4955,2.5026,2.5131,2.5176,2.5232,2.5239,2.5251,2.5254,2.5256,2.5253,2.5209,2.5246,2.5246,2.5246,2.5246,2.5246,0,2.435,2.4399,2.4458,2.4541,2.4593,2.462,2.4688,2.4729,2.479,2.4853,2.4911,2.499,2.5058,2.5127,2.5199,2.523,2.5247,2.5247,2.5245,2.5255,2.5242,2.5228,2.5232,2.5232,2.5232,2.5232,2.5232,2.5232,2.4364,2.4428,2.4466,2.4557,2.4606,2.4675,2.4712,2.4763,2.4814,2.4901,2.4957,2.5002,2.5068,2.5145,2.5208,2.5227,2.5251,2.5246,2.5269,2.5255,2.5256,2.5257,2.5244,2.5251,2.5251,2.5278,2.5278,2.5278]},{"header":{"parameterUnit":"m.s-1","parameterCategory":1,"la1":30.2991,"la2":30.254,"lo1":-89.0895,"lo2":-89.0444,"dy":0.0017,"dx":0.0017,"nx":28,"ny":28,"refTime":"2024-06-26T21:00:00:Z","depth":0,"parameterNumber":3,"parameterNumberName":"V-component_of_WINDS"},"data":[0,0,0,0,0,0,0,0,0,0,0,0,0,0,0,0,0,0,0,0,0,0,0,0,0,0,0,0,0,0,0,0,0,0,0,0,0,0,0,0,0,0,0,0,0,0,0,0,0,0,0,0,0,0,0,0,0,0,5.8794,5.8796,0,5.8989,5.8991,5.8993,5.8992,5.8989,5.8987,5.8984,5.9174,5.9181,5.9189,0,0,0,0,0,0,0,0,0,0,0,0,0,5.841,5.8417,5.8793,5.8796,5.8798,5.8988,5.8991,5.8993,5.8992,5.8989,5.8986,5.8983,5.9172,5.9181,5.9189,0,0,0,0,0,0,0,0,0,0,0,0,0,5.8587,5.8419,5.8793,5.8821,5.8825,5.8988,5.8991,5.8994,5.8993,5.8989,5.8985,5.8982,5.9169,5.918,5.9191,5.9335,0,0,5.9225,5.9229,0,0,0,0,0,0,0,0,5.8577,5.8601,5.8814,5.8819,5.8824,5.8962,5.8925,5.9108,5.8994,5.8929,5.8984,5.898,5.9106,5.9122,5.9167,5.9344,5.9352,5.9226,5.9232,5.9237,5.924,0,0,0,0,0,0,0,5.8565,5.8593,5.887,5.8817,5.8824,5.882,5.8841,5.896,5.9036,5.8934,5.8935,5.8958,5.9108,5.9156,5.9171,5.9355,5.9225,5.9235,5.9242,5.9246,5.9659,5.9663,0,0,0,0,0,0,5.8548,5.8583,5.8864,5.8876,5.8689,5.883,5.8854,5.8922,5.9035,5.9049,5.8961,5.8958,5.9139,5.9158,5.9178,5.9354,5.9237,5.9248,5.9254,5.9655,5.966,5.9664,0,0,0,0,0,0,5.854,5.8573,5.8856,5.873,5.8766,5.8841,5.8917,5.8927,5.8976,5.9056,5.9068,5.8997,5.9137,5.9162,5.9297,5.9361,5.9253,5.9263,5.9649,5.9656,5.9662,5.9708,0,0,0,0,0,0,5.8529,5.8571,5.8629,5.8731,5.8772,5.8975,5.8921,5.8934,5.8996,5.8993,5.9092,5.9105,5.9136,5.928,5.9308,5.9374,5.9271,5.9644,5.9652,5.966,5.9701,5.9715,5.9727,0,0,0,0,0,5.8515,5.8632,5.8632,5.8666,5.8847,5.8979,5.9002,5.9038,5.9001,5.9059,5.911,5.9102,5.9349,5.9294,5.9325,5.9396,5.964,5.965,5.9659,5.9695,5.9712,5.9727,0,0,0,0,0,0,5.8532,5.8646,5.8647,5.8801,5.8881,5.8978,5.9052,5.9055,5.9144,5.9137,5.9174,5.9196,5.933,5.9376,5.9312,5.954,5.949,5.9506,5.9506,5.9523,5.9536,5.9522,5.9281,0,0,0,0,0,5.8554,5.8655,5.8747,5.8874,5.8914,5.8976,5.9035,5.9056,5.9138,5.9171,5.9232,5.9309,5.9404,5.9466,5.9558,5.9707,5.9728,5.9771,5.9784,5.9794,5.9808,5.9889,5.9909,5.9696,5.9696,5.9696,0,0,5.86,5.8674,5.8735,5.8879,5.8944,5.9044,5.9005,5.9112,5.9186,5.9186,5.9318,5.9365,5.9453,5.9596,5.9661,5.9638,5.9871,5.9807,5.9814,5.9822,5.9901,5.9921,5.9939,5.9703,5.9701,5.97,0,0,5.8735,5.8802,5.8915,5.8981,5.9079,5.912,5.9146,5.9244,5.9277,5.941,5.9412,5.9498,5.9661,5.9724,5.9778,5.9935,5.9931,5.9963,6.0032,6.011,6.0127,6.0142,6.0197,6.0217,5.9977,5.9977,5.9977,0,5.8778,5.8933,5.8972,5.9081,5.9143,5.9151,5.9263,5.9324,5.9446,5.9487,5.946,5.9665,5.9725,5.9881,5.992,5.9963,5.9993,5.9953,6.0122,6.0137,6.0152,6.0205,6.0226,5.998,5.998,5.9979,5.9979,0,5.8981,5.9088,5.9166,5.9288,5.9359,5.9469,5.9521,5.9587,5.9601,5.9643,5.9777,5.985,5.9956,5.9995,6.0008,6.0153,6.0135,6.0115,6.0064,6.0175,6.0226,6.0246,5.9985,5.9984,5.9983,5.9982,0,0,5.9132,5.9275,5.9303,5.9358,5.9467,5.9548,5.9657,5.9764,5.982,5.9903,5.9993,6.0131,6.0113,6.0173,6.0193,6.0262,6.0381,6.0233,6.0235,6.0257,6.0543,6.0558,6.0582,6.0379,6.0383,6.0386,6.0536,0,5.9279,5.9477,5.9514,5.9685,5.9783,5.9791,5.9885,5.996,6.0002,6.0088,6.0132,6.023,6.0198,6.0235,6.0303,6.0352,6.0439,6.0342,6.0461,6.0464,6.0439,6.0608,6.0625,6.0763,6.0556,6.0559,6.0562,0,5.9476,5.9568,5.975,5.9846,5.9888,5.9973,6.0073,6.0157,6.024,6.0265,6.0333,6.0346,6.0455,6.04,6.055,6.0483,6.0533,6.0564,6.057,6.0583,6.052,6.0625,6.0808,6.0829,6.0593,6.0591,6.0588,0,5.9568,5.9737,5.9867,5.9914,6.0029,6.0088,6.0137,6.0218,6.028,6.0366,6.0406,6.0503,6.0555,6.0628,6.0665,6.0621,6.0812,6.076,6.0834,6.0833,6.0874,6.0871,6.1068,6.0906,6.0906,6.0906,6.0905,0,5.9728,5.9839,5.9911,5.9991,6.0114,6.0154,6.0273,6.0321,6.0393,6.048,6.049,6.0571,6.0615,6.0701,6.0729,6.0849,6.0872,6.0893,6.09,6.0893,6.089,6.0927,6.0918,6.0911,6.091,6.0909,6.0908,0,5.9852,5.9905,6.0048,6.0145,6.0172,6.0258,6.034,6.0416,6.0457,6.0567,6.0595,6.0658,6.076,6.0804,6.0928,6.0947,6.1084,6.1083,6.1057,6.1059,6.113,6.1123,6.1358,6.139,6.1207,6.1208,6.121,0,5.9951,6.0037,6.0144,6.0205,6.0257,6.0355,6.0419,6.046,6.0525,6.0627,6.069,6.0793,6.0877,6.1039,6.1094,6.1188,6.1189,6.1265,6.1203,6.1193,6.119,6.1185,6.1193,6.1276,6.1278,6.1279,6.1281,0,6.012,6.0142,6.0236,6.0339,6.0415,6.0497,6.0577,6.0625,6.0678,6.075,6.0856,6.0922,6.105,6.1151,6.1249,6.1295,6.1296,6.1299,6.1322,6.1316,6.1297,6.1308,6.1087,6.1294,6.1293,6.1292,6.1291,6.129,6.0235,6.0311,6.0399,6.0502,6.0567,6.0641,6.0718,6.077,6.086,6.097,6.0988,6.11,6.1179,6.1312,6.1362,6.1448,6.1429,6.1461,6.1469,6.1477,6.1481,6.1283,6.1466,6.1466,6.1465,6.1465,6.1465,0,6.0404,6.0461,6.0556,6.0669,6.075,6.0747,6.0834,6.0901,6.1001,6.1077,6.1161,6.1281,6.1379,6.1442,6.1539,6.1596,6.1599,6.162,6.1616,6.1627,6.1493,6.1464,6.1616,6.1616,6.1616,6.1616,6.1616,6.1616,6.0502,6.0632,6.0664,6.0824,6.0879,6.0993,6.1043,6.111,6.1171,6.1306,6.1389,6.143,6.15,6.1603,6.1691,6.1707,6.1742,6.1765,6.1779,6.1652,6.1636,6.1621,6.1595,6.1772,6.1772,6.1906,6.1907,6.1908]}]]